When you browse on this site, cookies collect data to enhance your experience and personalize the content and advertising you see.
Visit our Privacy Policy to learn more. By continuing to use the site, you agree to this use of cookies and data.
  • In Sweden
  • List of Countries
  • For 7 days
  • Water Temperature
  • Weather Map
  • Weather Widgets
  • user-avatar
    Login

    Hourly Weather La Massana

    Today, 20 September, Friday

    Time Temperature Precipitation Wind Pressure Humidity
    00:00 +9°C° 0 mm 1 mps 613 mmHg 89%
    01:00 +9°C° 0 mm 1 mps 612 mmHg 89%
    02:00 +9°C° 0 mm 1 mps 612 mmHg 90%
    03:00 +9°C° 0 mm 1 mps 612 mmHg 91%
    04:00 +9°C° 0 mm 1 mps 612 mmHg 91%
    05:00 +9°C° 0 mm 1 mps 612 mmHg 91%
    06:00 +9°C° 0 mm 1 mps 612 mmHg 90%
    07:00 +11°C° 0 mm 1 mps 613 mmHg 85%
    08:00 +13°C° 0 mm 2 mps 614 mmHg 79%
    09:00 +15°C° 0 mm 2 mps 615 mmHg 73%
    10:00 +15°C° 0.5 mm 2 mps 615 mmHg 72%
    11:00 +16°C° 0.5 mm 2 mps 615 mmHg 71%
    12:00 +16°C° 0.5 mm 2 mps 615 mmHg 70%
    13:00 +16°C° 0.8 mm 2 mps 615 mmHg 71%
    14:00 +16°C° 0.8 mm 2 mps 614 mmHg 72%
    15:00 +16°C° 0.8 mm 2 mps 614 mmHg 73%
    16:00 +14°C° 0.3 mm 2 mps 613 mmHg 79%
    17:00 +13°C° 0.3 mm 2 mps 613 mmHg 85%
    18:00 +10°C° 0.3 mm 2 mps 612 mmHg 91%
    19:00 +10°C° 0 mm 2 mps 612 mmHg 92%
    20:00 +9°C° 0 mm 2 mps 611 mmHg 93%
    21:00 +9°C° 0 mm 2 mps 611 mmHg 94%
    22:00 +9°C° 0 mm 2 mps 611 mmHg 93%
    23:00 +9°C° 0 mm 2 mps 611 mmHg 93%

    Tomorrow, 21 September, Saturday

    Time Temperature Precipitation Wind Pressure Humidity
    00:00 +9°C° 0 mm 2 mps 611 mmHg 93%
    01:00 +9°C° 0 mm 2 mps 610 mmHg 91%
    02:00 +8°C° 0 mm 2 mps 610 mmHg 90%
    03:00 +8°C° 0 mm 2 mps 610 mmHg 88%
    04:00 +8°C° 0.1 mm 2 mps 610 mmHg 88%
    05:00 +9°C° 0.1 mm 2 mps 610 mmHg 88%
    06:00 +9°C° 0.1 mm 2 mps 609 mmHg 87%
    07:00 +9°C° 0.3 mm 2 mps 610 mmHg 87%
    08:00 +9°C° 0.3 mm 2 mps 610 mmHg 87%
    09:00 +11°C° 0.3 mm 1 mps 610 mmHg 88%
    10:00 +12°C° 0.3 mm 2 mps 610 mmHg 82%
    11:00 +14°C° 0.3 mm 2 mps 611 mmHg 77%
    12:00 +15°C° 0.3 mm 2 mps 611 mmHg 71%
    13:00 +15°C° 0.4 mm 2 mps 611 mmHg 70%
    14:00 +15°C° 0.4 mm 2 mps 611 mmHg 69%
    15:00 +16°C° 0.4 mm 2 mps 610 mmHg 68%
    16:00 +14°C° 0.3 mm 2 mps 610 mmHg 74%
    17:00 +12°C° 0.3 mm 2 mps 609 mmHg 81%
    18:00 +10°C° 0.3 mm 2 mps 608 mmHg 87%
    19:00 +9°C° 0 mm 2 mps 608 mmHg 87%
    20:00 +9°C° 0 mm 2 mps 608 mmHg 86%
    21:00 +8°C° 0 mm 2 mps 608 mmHg 86%
    22:00 +8°C° 0 mm 2 mps 608 mmHg 86%
    23:00 +8°C° 0 mm 2 mps 608 mmHg 86%

    Day after tomorrow, 22 September, Sunday

    Time Temperature Precipitation Wind Pressure Humidity
    00:00 +8°C° 0 mm 2 mps 607 mmHg 86%
    01:00 +8°C° 0 mm 2 mps 607 mmHg 87%
    02:00 +8°C° 0 mm 2 mps 607 mmHg 87%
    03:00 +8°C° 0 mm 2 mps 607 mmHg 87%
    04:00 +8°C° 0 mm 2 mps 607 mmHg 88%
    05:00 +8°C° 0 mm 2 mps 607 mmHg 88%
    06:00 +8°C° 0 mm 2 mps 607 mmHg 88%
    07:00 +10°C° 0 mm 2 mps 607 mmHg 83%
    08:00 +13°C° 0 mm 2 mps 608 mmHg 78%
    09:00 +15°C° 0 mm 2 mps 609 mmHg 73%
    10:00 +14°C° 0.2 mm 2 mps 609 mmHg 74%
    11:00 +14°C° 0.2 mm 2 mps 609 mmHg 75%
    12:00 +14°C° 0.2 mm 2 mps 609 mmHg 75%
    13:00 +13°C° 0.8 mm 2 mps 609 mmHg 81%
    14:00 +12°C° 0.8 mm 1 mps 608 mmHg 87%
    15:00 +11°C° 0.8 mm 1 mps 608 mmHg 93%
    16:00 +10°C° 0.3 mm 1 mps 608 mmHg 94%
    17:00 +9°C° 0.3 mm 1 mps 608 mmHg 95%
    18:00 +8°C° 0.3 mm 1 mps 608 mmHg 96%
    19:00 +8°C° 0.2 mm 1 mps 608 mmHg 96%
    20:00 +7°C° 0.2 mm 1 mps 609 mmHg 95%
    21:00 +6°C° 0.2 mm 2 mps 609 mmHg 95%
    22:00 +5°C° 0 mm 2 mps 609 mmHg 94%
    23:00 +4°C° 0 mm 2 mps 609 mmHg 93%

    23 September, Monday

    Time Temperature Precipitation Wind Pressure Humidity
    00:00 +4°C° 0 mm 2 mps 609 mmHg 92%
    01:00 +3°C° 0 mm 2 mps 609 mmHg 89%
    02:00 +4°C° 0 mm 1 mps 609 mmHg 87%
    03:00 +4°C° 0 mm 1 mps 609 mmHg 84%
    04:00 +4°C° 0 mm 1 mps 609 mmHg 83%
    05:00 +4°C° 0 mm 1 mps 609 mmHg 82%
    06:00 +4°C° 0 mm 1 mps 609 mmHg 81%
    07:00 +6°C° 0 mm 1 mps 610 mmHg 75%
    08:00 +9°C° 0 mm 1 mps 612 mmHg 68%
    09:00 +11°C° 0 mm 1 mps 613 mmHg 62%
    10:00 +12°C° 0 mm 1 mps 613 mmHg 58%
    11:00 +13°C° 0 mm 1 mps 613 mmHg 53%
    12:00 +14°C° 0 mm 2 mps 614 mmHg 48%
    13:00 +14°C° 0 mm 2 mps 613 mmHg 50%
    14:00 +14°C° 0 mm 2 mps 613 mmHg 51%
    15:00 +14°C° 0 mm 2 mps 613 mmHg 53%
    16:00 +12°C° 0 mm 1 mps 612 mmHg 62%
    17:00 +10°C° 0 mm 1 mps 611 mmHg 72%
    18:00 +7°C° 0 mm 0 mps 610 mmHg 81%
    19:00 +7°C° 0 mm 0 mps 610 mmHg 81%
    20:00 +8°C° 0 mm 1 mps 611 mmHg 81%
    21:00 +7°C° 0 mm 1 mps 611 mmHg 81%
    22:00 +8°C° 0 mm 1 mps 611 mmHg 79%
    23:00 +8°C° 0 mm 1 mps 611 mmHg 77%

    24 September, Tuesday

    Time Temperature Precipitation Wind Pressure Humidity
    00:00 +8°C° 0 mm 1 mps 611 mmHg 75%
    01:00 +8°C° 0 mm 1 mps 610 mmHg 74%
    02:00 +8°C° 0 mm 1 mps 610 mmHg 73%
    03:00 +8°C° 0 mm 1 mps 610 mmHg 73%
    04:00 +8°C° 0 mm 1 mps 610 mmHg 73%
    05:00 +8°C° 0 mm 1 mps 610 mmHg 72%
    06:00 +8°C° 0 mm 1 mps 609 mmHg 72%
    07:00 +11°C° 0 mm 1 mps 611 mmHg 66%
    08:00 +13°C° 0 mm 1 mps 612 mmHg 60%
    09:00 +16°C° 0 mm 1 mps 613 mmHg 54%
    10:00 +18°C° 0 mm 1 mps 614 mmHg 52%
    11:00 +19°C° 0 mm 2 mps 614 mmHg 49%
    12:00 +20°C° 0 mm 2 mps 614 mmHg 47%
    13:00 +19°C° 0 mm 2 mps 614 mmHg 50%
    14:00 +18°C° 0 mm 2 mps 614 mmHg 53%
    15:00 +19°C° 0 mm 1 mps 613 mmHg 56%
    16:00 +16°C° 0 mm 1 mps 612 mmHg 65%
    17:00 +13°C° 0 mm 1 mps 611 mmHg 74%
    18:00 +11°C° 0 mm 1 mps 611 mmHg 83%
    19:00 +11°C° 0 mm 1 mps 611 mmHg 83%
    20:00 +10°C° 0 mm 1 mps 611 mmHg 83%
    21:00 +10°C° 0 mm 1 mps 611 mmHg 83%
    22:00 +10°C° 0 mm 1 mps 611 mmHg 83%
    23:00 +10°C° 0 mm 1 mps 610 mmHg 83%

    25 September, Wednesday

    Time Temperature Precipitation Wind Pressure Humidity
    00:00 +10°C° 0 mm 1 mps 610 mmHg 83%
    01:00 +10°C° 0.2 mm 1 mps 610 mmHg 84%
    02:00 +10°C° 0.2 mm 1 mps 610 mmHg 86%
    03:00 +10°C° 0.2 mm 1 mps 610 mmHg 88%
    04:00 +9°C° 0.3 mm 0 mps 610 mmHg 89%
    05:00 +9°C° 0.3 mm 0 mps 610 mmHg 90%
    06:00 +8°C° 0.3 mm 0 mps 610 mmHg 91%
    07:00 +10°C° 0.2 mm 1 mps 610 mmHg 88%
    08:00 +11°C° 0.2 mm 1 mps 611 mmHg 85%
    09:00 +13°C° 0.2 mm 2 mps 612 mmHg 82%
    10:00 +13°C° 0.2 mm 2 mps 612 mmHg 80%
    11:00 +13°C° 0.2 mm 2 mps 612 mmHg 78%
    12:00 +13°C° 0.2 mm 2 mps 612 mmHg 76%
    13:00 +13°C° 0.2 mm 2 mps 612 mmHg 78%
    14:00 +13°C° 0.2 mm 2 mps 612 mmHg 80%
    15:00 +12°C° 0.2 mm 2 mps 611 mmHg 82%
    16:00 +11°C° 0.2 mm 1 mps 611 mmHg 85%
    17:00 +10°C° 0.2 mm 1 mps 611 mmHg 89%
    18:00 +9°C° 0.2 mm 1 mps 611 mmHg 92%
    19:00 +9°C° 0.1 mm 1 mps 611 mmHg 93%
    20:00 +9°C° 0.1 mm 1 mps 611 mmHg 94%
    21:00 +8°C° 0.1 mm 1 mps 611 mmHg 95%
    22:00 +8°C° 0 mm 1 mps 611 mmHg 95%
    23:00 +7°C° 0 mm 0 mps 611 mmHg 95%
    Show more